Time,TemperatureF,DewpointF,PressureIn,WindDirection,WindDirectionDegrees,WindSpeedMPH,WindSpeedGustMPH,Humidity,HourlyPrecipIn,Conditions,Clouds,dailyrainin,SoftwareType,DateUTC
2013-07-05 00:09:00,76.3,74.0,30.22,SSW,210,0.0,-999.0,91,-99.99,,,0.00,weatherlink.com 1.10,2013-07-05 04:09:00,
2013-07-05 00:24:00,76.1,74.0,30.22,SE,146,0.0,-999.0,92,-99.99,,,0.00,weatherlink.com 1.10,2013-07-05 04:24:00,
2013-07-05 00:39:00,75.8,74.0,30.22,SSE,150,0.0,-999.0,93,-99.99,,,0.00,weatherlink.com 1.10,2013-07-05 04:39:00,
2013-07-05 00:54:00,76.0,74.0,30.22,SSW,198,0.0,-999.0,93,-99.99,,,0.00,weatherlink.com 1.10,2013-07-05 04:54:00,
2013-07-05 01:09:00,76.0,74.0,30.22,SSE,160,0.0,-999.0,93,-99.99,,,0.00,weatherlink.com 1.10,2013-07-05 05:09:00,
2013-07-05 01:24:00,76.0,74.0,30.22,SSE,162,0.0,-999.0,93,-99.99,,,0.00,weatherlink.com 1.10,2013-07-05 05:24:00,
2013-07-05 01:39:00,75.8,74.0,30.22,SSE,162,0.0,-999.0,93,-99.99,,,0.00,weatherlink.com 1.10,2013-07-05 05:39:00,
2013-07-05 01:54:00,75.8,74.0,30.22,SSE,155,0.0,-999.0,94,-99.99,,,0.00,weatherlink.com 1.10,2013-07-05 05:54:00,
2013-07-05 02:09:00,75.6,74.0,30.22,SSE,155,0.0,-999.0,94,-99.99,,,0.00,weatherlink.com 1.10,2013-07-05 06:09:00,
2013-07-05 02:24:00,75.4,74.0,30.22,SSE,155,0.0,-999.0,94,-99.99,,,0.00,weatherlink.com 1.10,2013-07-05 06:24:00,
2013-07-05 02:39:00,75.3,74.0,30.22,SSE,155,0.0,-999.0,95,-99.99,,,0.00,weatherlink.com 1.10,2013-07-05 06:39:00,
2013-07-05 02:54:00,75.3,74.0,30.22,SSE,156,0.0,-999.0,95,-99.99,,,0.00,weatherlink.com 1.10,2013-07-05 06:54:00,
2013-07-05 03:09:00,75.3,74.0,30.22,SSW,202,0.0,-999.0,95,-99.99,,,0.00,weatherlink.com 1.10,2013-07-05 07:09:00,
2013-07-05 03:24:00,75.3,74.0,30.22,SSW,202,0.0,-999.0,95,-99.99,,,0.00,weatherlink.com 1.10,2013-07-05 07:24:00,
2013-07-05 03:39:00,75.1,74.0,30.22,SSW,196,0.0,-999.0,95,-99.99,,,0.00,weatherlink.com 1.10,2013-07-05 07:39:00,
2013-07-05 03:54:00,75.1,74.0,30.21,SSW,196,0.0,-999.0,95,-99.99,,,0.00,weatherlink.com 1.10,2013-07-05 07:54:00,
2013-07-05 04:09:00,74.9,73.0,30.21,SSW,196,0.0,-999.0,95,-99.99,,,0.00,weatherlink.com 1.10,2013-07-05 08:09:00,
2013-07-05 04:24:00,74.7,73.0,30.21,SSW,196,0.0,-999.0,95,-99.99,,,0.00,weatherlink.com 1.10,2013-07-05 08:24:00,
2013-07-05 04:39:00,74.6,73.0,30.21,SSW,196,0.0,-999.0,95,-99.99,,,0.00,weatherlink.com 1.10,2013-07-05 08:39:00,
2013-07-05 04:54:00,74.6,73.0,30.21,SSW,196,0.0,-999.0,95,-99.99,,,0.00,weatherlink.com 1.10,2013-07-05 08:54:00,
2013-07-05 05:09:00,74.4,73.0,30.21,SW,214,0.0,-999.0,95,-99.99,,,0.00,weatherlink.com 1.10,2013-07-05 09:09:00,
2013-07-05 05:24:00,74.2,73.0,30.21,SW,215,0.0,-999.0,95,-99.99,,,0.00,weatherlink.com 1.10,2013-07-05 09:24:00,
2013-07-05 05:39:00,74.0,73.0,30.21,SW,214,0.0,-999.0,95,-99.99,,,0.00,weatherlink.com 1.10,2013-07-05 09:39:00,
2013-07-05 05:54:00,74.0,73.0,30.21,SW,214,0.0,-999.0,95,-99.99,,,0.00,weatherlink.com 1.10,2013-07-05 09:54:00,
2013-07-05 06:39:00,74.2,73.0,30.22,SW,214,0.0,-999.0,96,-99.99,,,0.00,weatherlink.com 1.10,2013-07-05 10:39:00,
2013-07-05 06:54:00,74.6,73.0,30.22,SSW,209,1.0,-999.0,95,-99.99,,,0.00,weatherlink.com 1.10,2013-07-05 10:54:00,
2013-07-05 07:09:00,74.9,73.0,30.23,SSW,198,0.0,-999.0,95,-99.99,,,0.00,weatherlink.com 1.10,2013-07-05 11:09:00,
2013-07-05 07:39:00,75.8,74.0,30.23,SSW,208,5.0,-999.0,93,-99.99,,,0.00,weatherlink.com 1.10,2013-07-05 11:39:00,
2013-07-05 07:54:00,76.5,74.0,30.23,SW,227,0.0,-999.0,91,-99.99,,,0.00,weatherlink.com 1.10,2013-07-05 11:54:00,
2013-07-05 08:24:00,77.6,74.0,30.23,SW,226,0.0,-999.0,88,-99.99,,,0.00,weatherlink.com 1.10,2013-07-05 12:24:00,
2013-07-05 08:36:00,78.3,74.1,30.23,SSW,198,3.0,3.0,87,0.00,,,0.00,Wunderground v.1.15,2013-07-05 12:36:00,
2013-07-05 08:41:00,78.3,74.1,30.23,West,269,3.0,4.0,87,0.00,,,0.00,Wunderground v.1.15,2013-07-05 12:41:00,
2013-07-05 09:08:00,79.8,75.0,30.23,SSW,198,0.0,-999.0,84,-99.99,,,0.00,weatherlink.com 1.10,2013-07-05 13:08:00,
2013-07-05 09:23:00,80.1,75.0,30.23,SW,217,0.0,-999.0,83,-99.99,,,0.00,weatherlink.com 1.10,2013-07-05 13:23:00,
2013-07-05 10:08:00,82.2,75.0,30.23,SSW,193,6.0,-999.0,79,-99.99,,,0.00,weatherlink.com 1.10,2013-07-05 14:08:00,
2013-07-05 10:23:00,82.4,75.0,30.23,South,171,0.0,-999.0,78,-99.99,,,0.00,weatherlink.com 1.10,2013-07-05 14:23:00,
2013-07-05 11:08:00,83.8,75.0,30.23,WNW,297,4.0,-999.0,75,-99.99,,,0.00,weatherlink.com 1.10,2013-07-05 15:08:00,
2013-07-05 11:23:00,83.4,74.0,30.23,WSW,240,0.0,-999.0,74,-99.99,,,0.00,weatherlink.com 1.10,2013-07-05 15:23:00,
2013-07-05 11:38:00,83.8,76.0,30.23,South,183,2.0,-999.0,76,-99.99,,,0.00,weatherlink.com 1.10,2013-07-05 15:38:00,
2013-07-05 11:53:00,84.0,75.0,30.23,SSE,165,0.0,-999.0,75,-99.99,,,0.00,weatherlink.com 1.10,2013-07-05 15:53:00,
2013-07-05 12:08:00,84.5,75.0,30.23,SW,214,4.0,-999.0,72,-99.99,,,0.00,weatherlink.com 1.10,2013-07-05 16:08:00,
2013-07-05 12:23:00,84.9,75.0,30.23,South,187,0.0,-999.0,73,-99.99,,,0.00,weatherlink.com 1.10,2013-07-05 16:23:00,
2013-07-05 12:38:00,85.5,76.0,30.23,SE,142,0.0,-999.0,72,-99.99,,,0.00,weatherlink.com 1.10,2013-07-05 16:38:00,
2013-07-05 12:53:00,85.1,74.0,30.22,SW,236,4.0,-999.0,70,-99.99,,,0.00,weatherlink.com 1.10,2013-07-05 16:53:00,
2013-07-05 13:08:00,85.7,74.0,30.22,West,273,3.0,-999.0,68,-99.99,,,0.00,weatherlink.com 1.10,2013-07-05 17:08:00,
2013-07-05 13:23:00,86.3,74.0,30.21,SSW,206,1.0,-999.0,67,-99.99,,,0.00,weatherlink.com 1.10,2013-07-05 17:23:00,
2013-07-05 13:38:00,87.2,75.0,30.21,WSW,240,6.0,-999.0,68,-99.99,,,0.00,weatherlink.com 1.10,2013-07-05 17:38:00,
2013-07-05 13:53:00,86.1,75.0,30.21,South,191,1.0,-999.0,69,-99.99,,,0.00,weatherlink.com 1.10,2013-07-05 17:53:00,
2013-07-05 14:08:00,87.2,75.0,30.20,SW,236,5.0,-999.0,67,-99.99,,,0.00,weatherlink.com 1.10,2013-07-05 18:08:00,
2013-07-05 14:24:00,87.2,75.0,30.20,WSW,250,2.0,-999.0,66,-99.99,,,0.00,weatherlink.com 1.10,2013-07-05 18:24:00,
2013-07-05 14:39:00,87.2,75.0,30.19,SSW,198,1.0,-999.0,67,-99.99,,,0.00,weatherlink.com 1.10,2013-07-05 18:39:00,
2013-07-05 14:54:00,87.2,76.0,30.19,SW,217,5.0,-999.0,69,-99.99,,,0.00,weatherlink.com 1.10,2013-07-05 18:54:00,
2013-07-05 15:09:00,88.2,75.0,30.19,SSE,148,5.0,-999.0,66,-99.99,,,0.00,weatherlink.com 1.10,2013-07-05 19:09:00,
2013-07-05 15:24:00,88.2,76.0,30.18,South,188,0.0,-999.0,67,-99.99,,,0.00,weatherlink.com 1.10,2013-07-05 19:24:00,
2013-07-05 15:39:00,88.2,75.0,30.18,SW,231,3.0,-999.0,64,-99.99,,,0.00,weatherlink.com 1.10,2013-07-05 19:39:00,
2013-07-05 15:54:00,88.6,74.0,30.17,SSW,204,0.0,-999.0,63,-99.99,,,0.00,weatherlink.com 1.10,2013-07-05 19:54:00,
2013-07-05 16:09:00,88.2,75.0,30.16,SW,229,9.0,-999.0,64,-99.99,,,0.00,weatherlink.com 1.10,2013-07-05 20:09:00,
2013-07-05 16:24:00,87.6,73.0,30.16,SSW,197,0.0,-999.0,63,-99.99,,,0.00,weatherlink.com 1.10,2013-07-05 20:24:00,
2013-07-05 16:39:00,87.2,74.0,30.16,SSW,197,0.0,-999.0,64,-99.99,,,0.00,weatherlink.com 1.10,2013-07-05 20:39:00,
2013-07-05 16:54:00,87.8,75.0,30.15,SSW,200,3.0,-999.0,65,-99.99,,,0.00,weatherlink.com 1.10,2013-07-05 20:54:00,
2013-07-05 17:09:00,87.8,75.0,30.15,SW,226,5.0,-999.0,65,-99.99,,,0.00,weatherlink.com 1.10,2013-07-05 21:09:00,
2013-07-05 17:24:00,87.6,73.0,30.15,SW,233,2.0,-999.0,63,-99.99,,,0.00,weatherlink.com 1.10,2013-07-05 21:24:00,
2013-07-05 17:39:00,87.6,72.0,30.14,SSW,211,3.0,-999.0,61,-99.99,,,0.00,weatherlink.com 1.10,2013-07-05 21:39:00,
2013-07-05 17:54:00,87.6,74.0,30.13,SSW,196,5.0,-999.0,64,-99.99,,,0.00,weatherlink.com 1.10,2013-07-05 21:54:00,
2013-07-05 18:09:00,87.4,74.0,30.13,SSW,200,2.0,-999.0,64,-99.99,,,0.00,weatherlink.com 1.10,2013-07-05 22:09:00,
2013-07-05 18:24:00,87.2,74.0,30.13,SW,229,0.0,-999.0,64,-99.99,,,0.00,weatherlink.com 1.10,2013-07-05 22:24:00,
2013-07-05 18:39:00,86.7,74.0,30.13,SW,225,0.0,-999.0,65,-99.99,,,0.00,weatherlink.com 1.10,2013-07-05 22:39:00,
2013-07-05 18:54:00,86.1,73.0,30.13,SSE,167,5.0,-999.0,66,-99.99,,,0.00,weatherlink.com 1.10,2013-07-05 22:54:00,
2013-07-05 19:09:00,85.9,74.0,30.13,SSW,194,0.0,-999.0,67,-99.99,,,0.00,weatherlink.com 1.10,2013-07-05 23:09:00,
2013-07-05 19:24:00,85.1,75.0,30.13,SSW,194,0.0,-999.0,71,-99.99,,,0.00,weatherlink.com 1.10,2013-07-05 23:24:00,
2013-07-05 19:39:00,84.5,75.0,30.13,SSW,194,0.0,-999.0,73,-99.99,,,0.00,weatherlink.com 1.10,2013-07-05 23:39:00,
2013-07-05 19:54:00,84.0,75.0,30.13,SSW,194,0.0,-999.0,74,-99.99,,,0.00,weatherlink.com 1.10,2013-07-05 23:54:00,
2013-07-05 20:09:00,83.2,75.0,30.13,SSW,194,0.0,-999.0,75,-99.99,,,0.00,weatherlink.com 1.10,2013-07-06 00:09:00,
2013-07-05 20:24:00,82.6,74.0,30.14,SSW,194,0.0,-999.0,76,-99.99,,,0.00,weatherlink.com 1.10,2013-07-06 00:24:00,
2013-07-05 20:39:00,82.0,75.0,30.14,SSW,194,0.0,-999.0,78,-99.99,,,0.00,weatherlink.com 1.10,2013-07-06 00:39:00,
2013-07-05 20:54:00,81.4,74.0,30.15,SSW,194,0.0,-999.0,79,-99.99,,,0.00,weatherlink.com 1.10,2013-07-06 00:54:00,
2013-07-05 21:09:00,80.9,74.0,30.15,SSW,194,0.0,-999.0,79,-99.99,,,0.00,weatherlink.com 1.10,2013-07-06 01:09:00,
2013-07-05 21:24:00,80.3,74.0,30.15,SSW,194,0.0,-999.0,81,-99.99,,,0.00,weatherlink.com 1.10,2013-07-06 01:24:00,
2013-07-05 21:39:00,79.9,74.0,30.15,SSW,194,0.0,-999.0,82,-99.99,,,0.00,weatherlink.com 1.10,2013-07-06 01:39:00,
2013-07-05 21:54:00,79.8,74.0,30.16,SSW,194,0.0,-999.0,83,-99.99,,,0.00,weatherlink.com 1.10,2013-07-06 01:54:00,
2013-07-05 22:09:00,79.6,74.0,30.16,SSW,194,0.0,-999.0,82,-99.99,,,0.00,weatherlink.com 1.10,2013-07-06 02:09:00,
2013-07-05 22:24:00,79.4,74.0,30.16,SSW,193,0.0,-999.0,82,-99.99,,,0.00,weatherlink.com 1.10,2013-07-06 02:24:00,
2013-07-05 22:39:00,79.4,74.0,30.16,SSW,193,0.0,-999.0,82,-99.99,,,0.00,weatherlink.com 1.10,2013-07-06 02:39:00,
2013-07-05 22:54:00,79.2,73.0,30.16,SSW,193,0.0,-999.0,82,-99.99,,,0.00,weatherlink.com 1.10,2013-07-06 02:54:00,
2013-07-05 23:09:00,79.0,73.0,30.16,SSW,193,0.0,-999.0,82,-99.99,,,0.00,weatherlink.com 1.10,2013-07-06 03:09:00,
2013-07-05 23:24:00,78.6,73.0,30.16,SSW,193,0.0,-999.0,83,-99.99,,,0.00,weatherlink.com 1.10,2013-07-06 03:24:00,
2013-07-05 23:39:00,78.3,73.0,30.17,SSW,193,0.0,-999.0,84,-99.99,,,0.00,weatherlink.com 1.10,2013-07-06 03:39:00,
2013-07-05 23:54:00,77.7,73.0,30.17,SSW,193,0.0,-999.0,86,-99.99,,,0.00,weatherlink.com 1.10,2013-07-06 03:54:00,